When you browse on this site, cookies collect data to enhance your experience and personalize the content and advertising you see.
Visit our Privacy Policy to learn more. By continuing to use the site, you agree to this use of cookies and data.
  • In Austria
  • List of Countries
  • For 7 days
  • Water Temperature
  • Weather Map
  • News
  • Weather Widgets
  • user-avatar
    Login

    Hourly Weather Lankaran

    Today, 9 December, Monday

    Time Temperature Precipitation Wind Pressure Humidity
    00:00 +1°C° 0.1 mm 1 mps 628 mmHg 87%
    01:00 +1°C° 0.4 mm 1 mps 628 mmHg 89%
    02:00 +1°C° 0.4 mm 1 mps 628 mmHg 92%
    03:00 -1°C° 0 mm 2 mps 628 mmHg 95%
    04:00 -1°C° 0.4 mm 2 mps 628 mmHg 95%
    05:00 -1°C° 0.4 mm 2 mps 629 mmHg 95%
    06:00 -1°C° 0.4 mm 2 mps 629 mmHg 95%
    07:00 +1°C° 0.1 mm 1 mps 629 mmHg 93%
    08:00 +1°C° 0.1 mm 1 mps 630 mmHg 92%
    09:00 +2°C° 0 mm 1 mps 630 mmHg 90%
    10:00 +2°C° 0 mm 1 mps 631 mmHg 87%
    11:00 +3°C° 0 mm 1 mps 631 mmHg 85%
    12:00 +2°C° 0 mm 2 mps 631 mmHg 82%
    13:00 +2°C° 0 mm 2 mps 631 mmHg 83%
    14:00 +2°C° 0 mm 2 mps 631 mmHg 83%
    15:00 +2°C° 0 mm 2 mps 631 mmHg 83%
    16:00 +2°C° 0.1 mm 2 mps 631 mmHg 86%
    17:00 +1°C° 0.1 mm 2 mps 631 mmHg 88%
    18:00 +1°C° 0.1 mm 2 mps 632 mmHg 90%
    19:00 -1°C° 0 mm 2 mps 632 mmHg 90%
    20:00 +1°C° 0 mm 1 mps 632 mmHg 89%
    21:00 +1°C° 0 mm 1 mps 632 mmHg 89%
    22:00 +1°C° 0 mm 1 mps 632 mmHg 89%
    23:00 0°C° 0 mm 1 mps 632 mmHg 88%

    Tomorrow, 10 December, Tuesday

    Time Temperature Precipitation Wind Pressure Humidity
    00:00 0°C° 0 mm 1 mps 632 mmHg 88%
    01:00 0°C° 0 mm 1 mps 632 mmHg 86%
    02:00 0°C° 0 mm 1 mps 632 mmHg 85%
    03:00 0°C° 0 mm 1 mps 631 mmHg 83%
    04:00 0°C° 0 mm 1 mps 632 mmHg 82%
    05:00 0°C° 0 mm 1 mps 632 mmHg 80%
    06:00 0°C° 0 mm 1 mps 632 mmHg 78%
    07:00 +1°C° 0 mm 1 mps 632 mmHg 74%
    08:00 +1°C° 0 mm 1 mps 633 mmHg 70%
    09:00 +2°C° 0 mm 1 mps 634 mmHg 66%
    10:00 +3°C° 0 mm 1 mps 634 mmHg 66%
    11:00 +3°C° 0 mm 2 mps 633 mmHg 65%
    12:00 +4°C° 0 mm 2 mps 633 mmHg 64%
    13:00 +4°C° 0 mm 2 mps 633 mmHg 67%
    14:00 +3°C° 0 mm 2 mps 633 mmHg 71%
    15:00 +3°C° 0 mm 2 mps 632 mmHg 74%
    16:00 +2°C° 0 mm 2 mps 632 mmHg 78%
    17:00 +3°C° 0 mm 1 mps 632 mmHg 83%
    18:00 +2°C° 0 mm 1 mps 632 mmHg 87%
    19:00 +2°C° 0 mm 1 mps 632 mmHg 85%
    20:00 +1°C° 0 mm 1 mps 632 mmHg 84%
    21:00 +1°C° 0 mm 1 mps 632 mmHg 83%
    22:00 +1°C° 0 mm 1 mps 632 mmHg 81%
    23:00 +1°C° 0 mm 1 mps 631 mmHg 80%

    Day after tomorrow, 11 December, Wednesday

    Time Temperature Precipitation Wind Pressure Humidity
    00:00 0°C° 0 mm 1 mps 631 mmHg 78%
    01:00 0°C° 0 mm 1 mps 631 mmHg 77%
    02:00 0°C° 0 mm 1 mps 631 mmHg 77%
    03:00 0°C° 0 mm 1 mps 631 mmHg 76%
    04:00 0°C° 0 mm 1 mps 631 mmHg 76%
    05:00 0°C° 0 mm 1 mps 631 mmHg 76%
    06:00 0°C° 0 mm 1 mps 631 mmHg 75%
    07:00 +1°C° 0 mm 1 mps 631 mmHg 73%
    08:00 +2°C° 0 mm 1 mps 632 mmHg 70%
    09:00 +1°C° 0 mm 2 mps 632 mmHg 67%
    10:00 +2°C° 0 mm 2 mps 632 mmHg 65%
    11:00 +3°C° 0 mm 2 mps 632 mmHg 64%
    12:00 +3°C° 0 mm 2 mps 632 mmHg 62%
    13:00 +3°C° 0 mm 2 mps 632 mmHg 64%
    14:00 +3°C° 0 mm 2 mps 632 mmHg 66%
    15:00 +4°C° 0 mm 1 mps 632 mmHg 68%
    16:00 +3°C° 0 mm 1 mps 631 mmHg 72%
    17:00 +2°C° 0 mm 1 mps 631 mmHg 75%
    18:00 +1°C° 0 mm 1 mps 631 mmHg 79%
    19:00 +1°C° 0 mm 1 mps 631 mmHg 77%
    20:00 +1°C° 0 mm 1 mps 631 mmHg 76%
    21:00 0°C° 0 mm 1 mps 632 mmHg 75%
    22:00 0°C° 0 mm 1 mps 631 mmHg 75%
    23:00 0°C° 0 mm 1 mps 631 mmHg 74%

    12 December, Thursday

    Time Temperature Precipitation Wind Pressure Humidity
    00:00 0°C° 0 mm 1 mps 631 mmHg 73%
    01:00 0°C° 0 mm 1 mps 631 mmHg 73%
    02:00 0°C° 0 mm 1 mps 631 mmHg 72%
    03:00 0°C° 0 mm 1 mps 631 mmHg 71%
    04:00 0°C° 0 mm 1 mps 631 mmHg 71%
    05:00 -1°C° 0 mm 1 mps 631 mmHg 70%
    06:00 -1°C° 0 mm 1 mps 631 mmHg 70%
    07:00 0°C° 0 mm 1 mps 631 mmHg 67%
    08:00 -1°C° 0 mm 2 mps 632 mmHg 63%
    09:00 +1°C° 0 mm 2 mps 632 mmHg 60%
    10:00 +2°C° 0 mm 2 mps 632 mmHg 59%
    11:00 +3°C° 0 mm 2 mps 632 mmHg 58%
    12:00 +4°C° 0 mm 2 mps 632 mmHg 57%
    13:00 +4°C° 0 mm 2 mps 631 mmHg 59%
    14:00 +4°C° 0 mm 2 mps 631 mmHg 61%
    15:00 +3°C° 0 mm 2 mps 630 mmHg 63%
    16:00 +2°C° 0 mm 2 mps 630 mmHg 66%
    17:00 +1°C° 0 mm 2 mps 629 mmHg 69%
    18:00 -1°C° 0 mm 2 mps 629 mmHg 72%
    19:00 -1°C° 0 mm 2 mps 629 mmHg 71%
    20:00 +1°C° 0 mm 1 mps 628 mmHg 69%
    21:00 +1°C° 0 mm 1 mps 628 mmHg 67%
    22:00 +1°C° 0 mm 1 mps 628 mmHg 68%
    23:00 +1°C° 0 mm 1 mps 627 mmHg 68%

    13 December, Friday

    Time Temperature Precipitation Wind Pressure Humidity
    00:00 +1°C° 0 mm 1 mps 627 mmHg 68%
    01:00 +1°C° 0 mm 1 mps 627 mmHg 68%
    02:00 0°C° 0 mm 1 mps 627 mmHg 68%
    03:00 0°C° 0 mm 1 mps 626 mmHg 69%
    04:00 0°C° 0 mm 1 mps 626 mmHg 71%
    05:00 0°C° 0 mm 1 mps 626 mmHg 74%
    06:00 0°C° 0 mm 1 mps 626 mmHg 76%
    07:00 +1°C° 0 mm 1 mps 627 mmHg 78%
    08:00 +2°C° 0 mm 1 mps 627 mmHg 80%
    09:00 +2°C° 0 mm 1 mps 628 mmHg 82%
    10:00 +2°C° 0.3 mm 1 mps 627 mmHg 84%
    11:00 +2°C° 0.3 mm 1 mps 627 mmHg 87%
    12:00 +2°C° 0.3 mm 1 mps 627 mmHg 90%
    13:00 +2°C° 0.8 mm 1 mps 627 mmHg 92%
    14:00 +2°C° 0.8 mm 1 mps 626 mmHg 94%
    15:00 +1°C° 0.8 mm 1 mps 626 mmHg 96%
    16:00 +1°C° 1.1 mm 1 mps 626 mmHg 97%
    17:00 +1°C° 1.1 mm 1 mps 627 mmHg 97%
    18:00 +1°C° 1.1 mm 1 mps 627 mmHg 97%
    19:00 +1°C° 0.5 mm 1 mps 627 mmHg 97%
    20:00 +1°C° 0.5 mm 1 mps 627 mmHg 97%
    21:00 +1°C° 0.5 mm 1 mps 627 mmHg 97%
    22:00 +1°C° 0.2 mm 1 mps 627 mmHg 97%
    23:00 +1°C° 0.2 mm 1 mps 627 mmHg 96%

    14 December, Saturday

    Time Temperature Precipitation Wind Pressure Humidity
    00:00 0°C° 0.2 mm 0 mps 628 mmHg 96%
    01:00 +1°C° 0 mm 1 mps 627 mmHg 96%
    02:00 +1°C° 0 mm 1 mps 627 mmHg 95%
    03:00 +1°C° 0 mm 1 mps 627 mmHg 94%
    04:00 0°C° 0 mm 1 mps 627 mmHg 93%
    05:00 0°C° 0 mm 1 mps 627 mmHg 92%
    06:00 0°C° 0 mm 1 mps 627 mmHg 90%
    07:00 +1°C° 0 mm 1 mps 628 mmHg 86%
    08:00 +1°C° 0 mm 2 mps 628 mmHg 83%
    09:00 +1°C° 0 mm 2 mps 629 mmHg 79%
    10:00 +2°C° 0 mm 2 mps 629 mmHg 76%
    11:00 +2°C° 0 mm 3 mps 629 mmHg 73%
    12:00 +3°C° 0 mm 3 mps 629 mmHg 70%
    13:00 +3°C° 0 mm 3 mps 629 mmHg 70%
    14:00 +3°C° 0 mm 3 mps 628 mmHg 71%
    15:00 +3°C° 0 mm 3 mps 628 mmHg 71%
    16:00 +2°C° 0 mm 3 mps 628 mmHg 73%
    17:00 +2°C° 0 mm 2 mps 628 mmHg 75%
    18:00 +1°C° 0 mm 2 mps 628 mmHg 76%
    19:00 +1°C° 0 mm 2 mps 628 mmHg 76%
    20:00 +1°C° 0 mm 2 mps 628 mmHg 76%
    21:00 +1°C° 0 mm 2 mps 628 mmHg 76%
    22:00 -1°C° 0 mm 2 mps 628 mmHg 77%
    23:00 -1°C° 0 mm 2 mps 628 mmHg 77%
    Show more